TimeEDT,TemperatureF,Dew PointF,Humidity,Sea Level PressureIn,VisibilityMPH,Wind Direction,Wind SpeedMPH,Gust SpeedMPH,PrecipitationIn,Events,Conditions,WindDirDegrees,DateUTC
12:53 AM,77.0,73.9,90,30.06,10.0,SE,9.2,-,N/A,,Scattered Clouds,140,2013-06-17 04:53:00
1:53 AM,77.0,73.0,88,30.06,10.0,SSE,5.8,-,N/A,,Scattered Clouds,150,2013-06-17 05:53:00
2:53 AM,75.9,73.9,94,30.05,10.0,SSW,3.5,-,N/A,,Clear,200,2013-06-17 06:53:00
3:53 AM,75.9,73.9,94,30.02,10.0,Calm,Calm,-,N/A,,Partly Cloudy,0,2013-06-17 07:53:00
4:53 AM,75.0,73.9,96,30.02,10.0,Calm,Calm,-,N/A,,Partly Cloudy,0,2013-06-17 08:53:00
5:53 AM,73.9,73.9,100,30.04,10.0,North,3.5,-,N/A,,Partly Cloudy,350,2013-06-17 09:53:00
6:53 AM,81.1,73.8,78,30.05,10.0,Calm,Calm,-,N/A,,Mostly Cloudy,0,2013-06-17 10:53:00
7:53 AM,82.0,74.7,78,30.06,10.0,Calm,Calm,-,N/A,,Mostly Cloudy,0,2013-06-17 11:53:00
8:53 AM,84.0,74.1,72,30.06,10.0,SE,9.2,-,N/A,,Mostly Cloudy,140,2013-06-17 12:53:00
9:53 AM,85.3,75.0,71,30.06,10.0,SSE,8.1,-,N/A,,Scattered Clouds,150,2013-06-17 13:53:00
10:22 AM,86.0,75.2,70,30.06,10.0,SSE,5.8,-,N/A,,Mostly Cloudy,150,2013-06-17 14:22:00
10:53 AM,86.2,74.1,67,30.06,10.0,SE,8.1,-,N/A,,Mostly Cloudy,130,2013-06-17 14:53:00
11:53 AM,87.6,77.9,73,30.07,10.0,ESE,10.4,-,N/A,,Mostly Cloudy,110,2013-06-17 15:53:00
12:15 PM,89.6,78.8,70,30.07,10.0,SSE,8.1,-,N/A,,Scattered Clouds,150,2013-06-17 16:15:00
12:53 PM,89.8,72.5,57,30.07,10.0,SSE,9.2,-,N/A,,Scattered Clouds,160,2013-06-17 16:53:00
1:53 PM,89.1,71.8,57,30.06,10.0,SE,11.5,-,N/A,,Scattered Clouds,140,2013-06-17 17:53:00
2:53 PM,89.1,76.1,65,30.05,10.0,ESE,13.8,-,N/A,,Mostly Cloudy,120,2013-06-17 18:53:00
3:53 PM,87.4,75.6,68,30.04,10.0,SE,16.1,-,N/A,,Scattered Clouds,140,2013-06-17 19:53:00
4:53 PM,87.6,74.3,64,30.02,10.0,SE,15.0,21.9,N/A,,Scattered Clouds,140,2013-06-17 20:53:00
5:53 PM,86.4,73.9,66,30.02,10.0,SSE,15.0,-,N/A,,Scattered Clouds,150,2013-06-17 21:53:00
6:53 PM,84.6,74.1,71,30.02,10.0,SE,15.0,-,N/A,,Scattered Clouds,140,2013-06-17 22:53:00
7:53 PM,83.8,74.7,74,30.02,10.0,SE,15.0,-,N/A,,Scattered Clouds,140,2013-06-17 23:53:00
8:53 PM,82.8,73.9,75,30.04,10.0,SSE,12.7,-,N/A,,Scattered Clouds,150,2013-06-18 00:53:00
9:53 PM,82.9,73.9,74,30.06,10.0,SSE,10.4,-,N/A,,Partly Cloudy,150,2013-06-18 01:53:00
10:53 PM,82.6,73.9,75,30.08,10.0,SSE,10.4,-,N/A,,Partly Cloudy,150,2013-06-18 02:53:00
11:53 PM,82.4,73.6,75,30.07,10.0,SSE,8.1,-,N/A,,Scattered Clouds,160,2013-06-18 03:53:00